This demonstration page uses our WeatherBlox Daily Observations layout. Learn more.

Left ArrowRight Arrow

Hourly Observations for July 18, 2022

Temp ( °F °C ) Dew Point ( °F °C ) Humidity (%) Winds ( mph kmh ) Pressure ( in mb ) Visibility ( mi km ) Precip ( " mm )
12:59 am 00:59 Mostly Cloudy 80 26.7 73 22.8 79 79 S 9 15 30.04 1017 10 16 0.00 0.00
1:59 am 01:59 Mostly Cloudy 78 25.6 73 22.8 85 85 SSW 10 17 30.03 1017 10 16 0.00 0.00
2:59 am 02:59 Mostly Cloudy 77 25 73 22.8 88 88 SSW 7 11 30.01 1016 10 16 0.00 0.00
3:59 am 03:59 Partly Cloudy 76 24.4 73 22.8 91 91 SSW 9 15 30.01 1016 10 16 0.00 0.00
4:59 am 04:59 Partly Cloudy 76 24.4 73 22.8 91 91 SSW 8 13 30.01 1016 10 16 0.00 0.00
5:59 am 05:59 Partly Cloudy 76 24.4 73 22.8 91 91 SSW 8 13 30.02 1017 10 16 0.00 0.00
6:59 am 06:59 Partly Cloudy 75 23.9 72 22.2 90 90 SSW 7 11 30.03 1017 10 16 0.00 0.00
7:59 am 07:59 Mostly Sunny 79 26.1 73 22.8 82 82 SW 9 15 30.03 1017 10 16 0.00 0.00
8:59 am 08:59 Mostly Sunny 81 27.2 73 22.8 77 77 SW 8 13 30.02 1017 10 16 0.00 0.00
9:59 am 09:59 Mostly Sunny 82 27.8 73 22.8 74 74 SSW 10 17 30.01 1016 10 16 0.00 0.00
10:59 am 10:59 Partly Cloudy 86 30 72 22.2 63 63 SW 9 15 30.01 1016 10 16 0.00 0.00
11:59 am 11:59 Mostly Cloudy 86 30 72 22.2 63 63 SSW 10 17 29.99 1016 10 16 0.00 0.00
12:59 pm 12:59 Partly Cloudy 90 32.2 71 21.7 54 54 SW 10 17 29.98 1015 10 16 0.00 0.00
1:59 pm 13:59 Sunny N/A N/A N/A SSW 9 15 29.95 1014 10 16 0.00 0.00
2:59 pm 14:59 Partly Cloudy 91 32.8 70 21.1 50 50 SSW 7 11 29.91 1013 10 16 0.00 0.00
3:59 pm 15:59 Partly Cloudy 92 33.3 70 21.1 49 49 SW 9 15 29.89 1012 10 16 0.00 0.00
4:59 pm 16:59 Partly Cloudy 91 32.8 70 21.1 50 50 WSW 9 15 29.88 1012 10 16 0.00 0.00
5:59 pm 17:59 Partly Cloudy 91 32.8 71 21.7 52 52 SW 14 22 29.87 1012 10 16 0.00 0.00
6:59 pm 18:59 Partly Cloudy 91 32.8 71 21.7 52 52 SW 10 17 29.87 1012 10 16 0.00 0.00
7:59 pm 19:59 Partly Cloudy 90 32.2 72 22.2 56 56 SSW 9 15 29.88 1012 10 16 0.00 0.00
8:59 pm 20:59 Mostly Clear 86 30 72 22.2 63 63 SSW 9 15 29.88 1012 10 16 0.00 0.00
9:59 pm 21:59 Mostly Clear 86 30 72 22.2 63 63 SSW 9 15 29.89 1012 10 16 0.00 0.00
10:59 pm 22:59 Partly Cloudy 82 27.8 74 23.3 77 77 SSW 10 17 29.90 1013 10 16 0.00 0.00
11:59 pm 23:59 Partly Cloudy 82 27.8 74 23.3 77 77 SSW 12 19 29.91 1013 10 16 0.00 0.00

Powered by AerisWeather